EUTELSAT HOTBIRD 13G

Last updated on Thu Aug 13 2026 00:03:03 GMT+0000 (Coordinated Universal Time)

1 54225U 22146A 26224.57460814 .00000069 00000+0 00000+0 0 9997 2 54225 0.0543 247.9977 0002032 294.2617 358.6052 1.00269900 8032
UTC large
Height (km)
Speed (km/s)
/
Latitude / Longitude
Inclination (degrees)
Orbital Period (minutes)
Azimuth
Elevation
Range (km)
Doppler Factor

Next 0 passes for location: London (51.5072 / 0.1276)

No passes found over London.
EUTELSAT HOTBIRD 13G